Weather History for Chadron, NE

Change the Weather History Date:

Thursday, February 6, 2014

  Actual Average Record
Temperature  
Mean Temperature -8 °F 26 °F  
Max Temperature 1 °F 40 °F 62 °F (1950)
Min Temperature -17 °F 11 °F -30 °F (1936)
Degree Days  
Heating Degree Days 73 39  
Month to date heating degree days 368 239  
Since 1 July heating degree days 4560 4438  
Cooling Degree Days 0 0  
Month to date cooling degree days 0 0  
Year to date cooling degree days 0 0  
Moisture  
Dew Point -15 °F    
Average Humidity 65    
Maximum Humidity 77    
Minimum Humidity 53    
Precipitation  
Precipitation T in 0.02 in 0.28 in (1921)
Month to date precipitation 0.05 0.11  
Year to date precipitation 0.25 0.47  
Sea Level Pressure  
Sea Level Pressure 30.53 in    
Wind  
Wind Speed 6 mph (WSW)    
Max Wind Speed 14 mph    
Max Gust Speed 16 mph    
Visibility 8 miles    
Events Snow    
T = Trace of Precipitation, MM = Missing Value Source: NWS Daily Summary

Daily Weather History Graph

Daily Weather History Graph

Search for Another Location

Airport:

Trip Planner

Search our weather history database for the weather conditions in past years. The results will help you decide how hot, cold, wet, or windy it might be!

Date:

Astronomy

Feb. 06, 2014 Rise Set
Actual Time 7:01 AM MST 5:12 PM MST
Civil Twilight 6:31 AM MST 5:41 PM MST
Nautical Twilight 5:58 AM MST 6:15 PM MST
Astronomical Twilight 5:25 AM MST 6:48 PM MST
Moon 10:45 AM MST (2/6) 12:19 AM MST (2/6)
Length of Visible Light 11h 10m
Length of Day
10h 10m
Waxing Crescent, 50% of the Moon is Illuminated
Feb 6
Waxing Crescent
Feb 6
First Quarter
Feb 14
Full
Feb 22
Last Quarter
Mar 1
New

Hourly Weather History & Observations

Time (MST) Temp. Windchill Dew Point Humidity Pressure Visibility Wind Dir Wind Speed Gust Speed Precip Events Conditions
12:53 AM -9.0 °F - -15.0 °F 75% 30.73 in 3.0 mi Calm Calm - 0.00 in Snow Light Snow
1:11 AM -7.6 °F - -13.0 °F 77% 30.42 in 2.5 mi Calm Calm - 0.00 in Snow Light Snow
1:53 AM -5.1 °F -17.6 °F -11.0 °F 76% 30.69 in 3.0 mi WSW 5.8 mph - 0.00 in Snow Light Snow
2:12 AM -5.8 °F -18.4 °F -11.2 °F 77% 30.41 in 2.5 mi WSW 5.8 mph - 0.00 in Snow Light Snow
2:19 AM -5.8 °F -16.7 °F -11.2 °F 77% 30.40 in 3.0 mi West 4.6 mph - 0.00 in Snow Light Snow
2:29 AM -5.8 °F -14.5 °F -11.2 °F 77% 30.40 in 2.5 mi WSW 3.5 mph - 0.00 in Snow Light Snow
2:53 AM -4.0 °F -16.3 °F -11.0 °F 72% 30.67 in 5.0 mi West 5.8 mph - 0.00 in Snow Light Snow
3:53 AM -2.9 °F -20.8 °F -9.9 °F 72% 30.66 in 6.0 mi West 11.5 mph - 0.00 in   Haze
4:53 AM -4.0 °F -14.6 °F -11.0 °F 72% 30.67 in 10.0 mi West 4.6 mph - N/A   Overcast
5:53 AM -6.0 °F -21.5 °F -13.0 °F 72% 30.68 in 9.0 mi WSW 8.1 mph - N/A   Overcast
6:53 AM -9.0 °F -26.4 °F -16.1 °F 71% 30.70 in 10.0 mi WSW 9.2 mph - N/A   Clear
7:53 AM -9.0 °F -22.3 °F -17.0 °F 68% 30.70 in 10.0 mi WSW 5.8 mph - N/A   Clear
8:53 AM -7.1 °F -22.8 °F -17.0 °F 62% 30.69 in 10.0 mi West 8.1 mph - N/A   Clear
9:53 AM -5.1 °F -22.5 °F -15.0 °F 62% 30.67 in 10.0 mi West 10.4 mph - N/A   Clear
10:53 AM -4.0 °F -23.0 °F -15.0 °F 59% 30.65 in 10.0 mi WSW 12.7 mph - N/A   Clear
11:53 AM -2.0 °F -17.7 °F -14.1 °F 57% 30.59 in 10.0 mi West 9.2 mph - N/A   Clear
12:53 PM -0.9 °F -16.4 °F -13.0 °F 57% 30.53 in 10.0 mi West 9.2 mph - N/A   Clear
1:53 PM -0.0 °F -14.2 °F -11.9 °F 57% 30.48 in 10.0 mi West 8.1 mph - N/A   Clear
2:53 PM -0.0 °F -11.6 °F -11.9 °F 57% 30.45 in 10.0 mi SW 5.8 mph - N/A   Clear
3:53 PM -0.0 °F -7.9 °F -13.0 °F 54% 30.44 in 10.0 mi WSW 3.5 mph - N/A   Clear
4:53 PM -2.0 °F -12.2 °F -14.1 °F 57% 30.43 in 10.0 mi WNW 4.6 mph - N/A   Clear
5:53 PM -8.0 °F - -16.1 °F 68% 30.44 in 10.0 mi Calm Calm - N/A   Clear
6:53 PM -11.0 °F -22.8 °F -18.0 °F 71% 30.44 in 10.0 mi WSW 4.6 mph - N/A   Clear
7:53 PM -14.1 °F - -20.0 °F 75% 30.44 in 10.0 mi Calm Calm - N/A   Clear
8:53 PM -13.0 °F -27.0 °F -20.0 °F 71% 30.42 in 10.0 mi West 5.8 mph - N/A   Clear
9:53 PM -13.0 °F -22.7 °F -18.9 °F 75% 30.40 in 10.0 mi WSW 3.5 mph - N/A   Clear
10:53 PM -14.1 °F - -20.0 °F 75% 30.38 in 10.0 mi Calm Calm - N/A   Clear
11:53 PM -14.1 °F -29.9 °F -20.0 °F 75% 30.35 in 10.0 mi SW 6.9 mph - N/A   Clear